Location: Ariel
(45.9570°N, 122.5700°W)
Time: 19:55:17
(UTC-07:00)

Tiros 1 - Pass Details

Date: 25 July 2019
Orbit: 630 x 664 km, 48.4° (Epoch: 19 August)

Event Time Altitude Azimuth Distance (km) Brightness Sun altitude
Rises 15:27:00 0° 284° (WNW) 2,997 10.9 52.5°
Reaches altitude 10° 15:29:22 10° 286° (WNW) 2,084 10.3 52.1°
Maximum altitude 15:34:11 74° 12° (NNE) 693 8.0 51.4°
Drops below altitude 10° 15:38:59 10° 98° (E) 2,077 9.6 50.7°
Sets 15:41:20 0° 100° (E) 2,985 10.3 50.3°
